Time,TemperatureF,DewpointF,PressureIn,WindDirection,WindDirectionDegrees,WindSpeedMPH,WindSpeedGustMPH,Humidity,HourlyPrecipIn,Conditions,Clouds,dailyrainin,SoftwareType,DateUTC
2013-07-05 00:03:00,60.1,51.4,30.06,NNW,327,1.0,3.0,73,0.00,,---,0.00,VWS V14.00,2013-07-05 07:03:00,
2013-07-05 00:08:00,60.0,51.0,30.05,NW,321,2.0,4.0,72,0.00,,---,0.00,VWS V14.00,2013-07-05 07:08:00,
2013-07-05 00:13:00,59.8,50.8,30.06,NW,313,2.0,4.0,72,0.00,,---,0.00,VWS V14.00,2013-07-05 07:13:00,
2013-07-05 00:18:00,59.6,51.0,30.06,NW,311,2.0,4.0,73,0.00,,---,0.00,VWS V14.00,2013-07-05 07:18:00,
2013-07-05 00:23:00,59.5,51.2,30.06,NW,318,2.0,4.0,74,0.00,,---,0.00,VWS V14.00,2013-07-05 07:23:00,
2013-07-05 00:28:00,59.3,50.7,30.06,NW,326,2.0,4.0,73,0.00,,---,0.00,VWS V14.00,2013-07-05 07:28:00,
2013-07-05 00:33:00,59.3,51.0,30.06,NW,319,0.0,3.0,74,0.00,,---,0.00,VWS V14.00,2013-07-05 07:33:00,
2013-07-05 00:38:00,59.2,50.9,30.06,NNW,334,0.0,5.0,74,0.00,,---,0.00,VWS V14.00,2013-07-05 07:38:00,
2013-07-05 00:43:00,59.1,51.2,30.06,NW,313,2.0,5.0,75,0.00,,---,0.00,VWS V14.00,2013-07-05 07:43:00,
2013-07-05 00:48:00,59.1,51.2,30.06,NW,317,1.0,5.0,75,0.00,,---,0.00,VWS V14.00,2013-07-05 07:48:00,
2013-07-05 00:53:00,59.1,51.2,30.06,WNW,294,0.0,5.0,75,0.00,,---,0.00,VWS V14.00,2013-07-05 07:53:00,
2013-07-05 00:58:00,59.2,51.7,30.06,NW,325,0.0,5.0,76,0.00,,---,0.00,VWS V14.00,2013-07-05 07:58:00,
2013-07-05 01:03:00,59.2,51.7,30.06,NW,325,2.0,2.0,76,0.00,,---,0.00,VWS V14.00,2013-07-05 08:03:00,
2013-07-05 01:08:00,59.2,51.7,30.06,NW,322,0.0,3.0,76,0.00,,---,0.00,VWS V14.00,2013-07-05 08:08:00,
2013-07-05 01:13:00,59.2,51.3,30.06,NW,306,2.0,3.0,75,0.00,,---,0.00,VWS V14.00,2013-07-05 08:13:00,
2013-07-05 01:18:00,59.2,51.3,30.06,NW,306,0.0,3.0,75,0.00,,---,0.00,VWS V14.00,2013-07-05 08:18:00,
2013-07-05 01:23:00,59.2,51.7,30.06,NNW,336,0.0,3.0,76,0.00,,---,0.00,VWS V14.00,2013-07-05 08:23:00,
2013-07-05 01:28:00,59.2,52.0,30.06,NNW,340,0.0,4.0,77,0.00,,---,0.00,VWS V14.00,2013-07-05 08:28:00,
2013-07-05 01:33:00,59.3,51.8,30.06,NNW,340,0.0,1.0,76,0.00,,---,0.00,VWS V14.00,2013-07-05 08:33:00,
2013-07-05 01:38:00,59.2,51.3,30.06,NW,324,0.0,3.0,75,0.00,,---,0.00,VWS V14.00,2013-07-05 08:38:00,
2013-07-05 01:43:00,59.1,51.5,30.06,NW,324,0.0,4.0,76,0.00,,---,0.00,VWS V14.00,2013-07-05 08:43:00,
2013-07-05 01:48:00,59.0,51.1,30.06,NNW,331,3.0,4.0,75,0.00,,---,0.00,VWS V14.00,2013-07-05 08:48:00,
2013-07-05 01:53:00,58.9,51.0,30.06,NW,313,1.0,4.0,75,0.00,,---,0.00,VWS V14.00,2013-07-05 08:53:00,
2013-07-05 01:58:00,58.8,50.9,30.06,NW,312,0.0,4.0,75,0.00,,---,0.00,VWS V14.00,2013-07-05 08:58:00,
2013-07-05 02:04:00,58.8,51.3,30.06,NW,317,2.0,3.0,76,0.00,,---,0.00,VWS V14.00,2013-07-05 09:04:00,
2013-07-05 02:09:00,58.7,51.2,30.06,NW,311,1.0,3.0,76,0.00,,---,0.00,VWS V14.00,2013-07-05 09:09:00,
2013-07-05 02:14:00,58.6,51.1,30.06,NW,326,0.0,3.0,76,0.00,,---,0.00,VWS V14.00,2013-07-05 09:14:00,
2013-07-05 02:19:00,58.6,51.1,30.06,NW,313,1.0,3.0,76,0.00,,---,0.00,VWS V14.00,2013-07-05 09:19:00,
2013-07-05 02:24:00,58.6,51.4,30.05,WNW,302,0.0,3.0,77,0.00,,---,0.00,VWS V14.00,2013-07-05 09:24:00,
2013-07-05 02:29:00,58.5,51.3,30.05,WNW,302,0.0,3.0,77,0.00,,---,0.00,VWS V14.00,2013-07-05 09:29:00,
2013-07-05 02:34:00,58.5,51.0,30.05,NW,321,2.0,3.0,76,0.00,,---,0.00,VWS V14.00,2013-07-05 09:34:00,
2013-07-05 02:39:00,58.4,50.9,30.05,NNW,331,0.0,3.0,76,0.00,,---,0.00,VWS V14.00,2013-07-05 09:39:00,
2013-07-05 02:45:00,58.3,50.8,30.05,NW,318,2.0,4.0,76,0.00,,---,0.00,VWS V14.00,2013-07-05 09:45:00,
2013-07-05 02:50:00,58.2,50.7,30.05,NW,307,2.0,4.0,76,0.00,,---,0.00,VWS V14.00,2013-07-05 09:50:00,
2013-07-05 02:55:00,58.2,51.0,30.05,NW,317,3.0,4.0,77,0.00,,---,0.00,VWS V14.00,2013-07-05 09:55:00,
2013-07-05 03:00:00,58.1,50.9,30.05,NW,309,1.0,4.0,77,0.00,,---,0.00,VWS V14.00,2013-07-05 10:00:00,
2013-07-05 03:05:00,58.1,51.3,30.05,NW,309,0.0,2.0,78,0.00,,---,0.00,VWS V14.00,2013-07-05 10:05:00,
2013-07-05 03:10:00,58.0,51.2,30.05,NW,309,2.0,2.0,78,0.00,,---,0.00,VWS V14.00,2013-07-05 10:10:00,
2013-07-05 03:16:00,58.0,51.2,30.05,NW,309,1.0,3.0,78,0.00,,---,0.00,VWS V14.00,2013-07-05 10:16:00,
2013-07-05 03:21:00,58.0,50.8,30.05,NW,309,1.0,3.0,77,0.00,,---,0.00,VWS V14.00,2013-07-05 10:21:00,
2013-07-05 03:26:00,57.9,50.7,30.05,NW,323,2.0,3.0,77,0.00,,---,0.00,VWS V14.00,2013-07-05 10:26:00,
2013-07-05 03:31:00,57.8,50.7,30.05,NNW,336,2.0,3.0,77,0.00,,---,0.00,VWS V14.00,2013-07-05 10:31:00,
2013-07-05 03:36:00,57.8,50.7,30.05,NW,315,0.0,2.0,77,0.00,,---,0.00,VWS V14.00,2013-07-05 10:36:00,
2013-07-05 03:41:00,57.8,50.7,30.05,NW,305,0.0,2.0,77,0.00,,---,0.00,VWS V14.00,2013-07-05 10:41:00,
2013-07-05 03:46:00,57.8,50.7,30.05,NW,317,1.0,2.0,77,0.00,,---,0.00,VWS V14.00,2013-07-05 10:46:00,
2013-07-05 03:51:00,57.8,51.0,30.05,NW,317,0.0,2.0,78,0.00,,---,0.00,VWS V14.00,2013-07-05 10:51:00,
2013-07-05 03:56:00,57.7,50.9,30.05,NW,317,0.0,2.0,78,0.00,,---,0.00,VWS V14.00,2013-07-05 10:56:00,
2013-07-05 04:01:00,57.7,50.9,30.05,NNW,338,0.0,2.0,78,0.00,,---,0.00,VWS V14.00,2013-07-05 11:01:00,
2013-07-05 04:06:00,57.7,50.5,30.05,NNW,339,1.0,2.0,77,0.00,,---,0.00,VWS V14.00,2013-07-05 11:06:00,
2013-07-05 04:11:00,57.6,50.8,30.05,NNW,339,0.0,2.0,78,0.00,,---,0.00,VWS V14.00,2013-07-05 11:11:00,
2013-07-05 04:16:00,57.7,50.9,30.05,NNW,339,1.0,2.0,78,0.00,,---,0.00,VWS V14.00,2013-07-05 11:16:00,
2013-07-05 04:22:00,57.6,50.8,30.05,NNW,339,0.0,2.0,78,0.00,,---,0.00,VWS V14.00,2013-07-05 11:22:00,
2013-07-05 04:27:00,57.6,50.8,30.04,NNW,339,0.0,2.0,78,0.00,,---,0.00,VWS V14.00,2013-07-05 11:27:00,
2013-07-05 04:32:00,57.5,50.4,30.04,WNW,299,0.0,2.0,77,0.00,,---,0.00,VWS V14.00,2013-07-05 11:32:00,
2013-07-05 04:38:00,57.5,50.4,30.05,NW,313,0.0,2.0,77,0.00,,---,0.00,VWS V14.00,2013-07-05 11:38:00,
2013-07-05 04:43:00,57.5,50.7,30.05,NW,313,0.0,2.0,78,0.00,,---,0.00,VWS V14.00,2013-07-05 11:43:00,
2013-07-05 04:48:00,57.4,50.6,30.05,NW,313,0.0,2.0,78,0.00,,---,0.00,VWS V14.00,2013-07-05 11:48:00,
2013-07-05 04:53:00,57.2,50.1,30.04,NW,313,0.0,2.0,77,0.00,,---,0.00,VWS V14.00,2013-07-05 11:53:00,
2013-07-05 04:58:00,57.1,50.3,30.05,NW,313,0.0,2.0,78,0.00,,---,0.00,VWS V14.00,2013-07-05 11:58:00,
2013-07-05 05:03:00,57.0,50.2,30.05,NW,313,0.0,0.0,78,0.00,,---,0.00,VWS V14.00,2013-07-05 12:03:00,
2013-07-05 05:08:00,56.9,50.1,30.05,NW,313,0.0,1.0,78,0.00,,---,0.00,VWS V14.00,2013-07-05 12:08:00,
2013-07-05 05:13:00,56.9,50.5,30.05,NW,313,0.0,1.0,79,0.00,,---,0.00,VWS V14.00,2013-07-05 12:13:00,
2013-07-05 05:18:00,56.8,50.4,30.05,NW,313,0.0,1.0,79,0.00,,---,0.00,VWS V14.00,2013-07-05 12:18:00,
2013-07-05 05:23:00,56.7,50.3,30.05,NW,313,0.0,1.0,79,0.00,,---,0.00,VWS V14.00,2013-07-05 12:23:00,
2013-07-05 05:28:00,56.7,50.3,30.05,NW,313,0.0,1.0,79,0.00,,---,0.00,VWS V14.00,2013-07-05 12:28:00,
2013-07-05 05:33:00,56.6,50.2,30.05,NW,313,0.0,0.0,79,0.00,,---,0.00,VWS V14.00,2013-07-05 12:33:00,
2013-07-05 05:38:00,56.6,50.2,30.05,NW,313,0.0,1.0,79,0.00,,---,0.00,VWS V14.00,2013-07-05 12:38:00,
2013-07-05 05:43:00,56.5,50.1,30.05,NW,313,0.0,1.0,79,0.00,,---,0.00,VWS V14.00,2013-07-05 12:43:00,
2013-07-05 05:48:00,56.4,50.0,30.05,NW,313,0.0,1.0,79,0.00,,---,0.00,VWS V14.00,2013-07-05 12:48:00,
2013-07-05 05:54:00,56.4,50.0,30.05,NW,313,0.0,1.0,79,0.00,,---,0.00,VWS V14.00,2013-07-05 12:54:00,
2013-07-05 06:00:00,56.3,50.2,30.05,NW,313,0.0,1.0,80,0.00,,---,0.00,VWS V14.00,2013-07-05 13:00:00,
2013-07-05 06:05:00,56.3,50.2,30.05,NW,313,0.0,0.0,80,0.00,,---,0.00,VWS V14.00,2013-07-05 13:05:00,
2013-07-05 06:10:00,56.3,50.2,30.05,NW,313,0.0,0.0,80,0.00,,---,0.00,VWS V14.00,2013-07-05 13:10:00,
2013-07-05 06:15:00,56.4,50.3,30.05,NW,313,0.0,0.0,80,0.00,,---,0.00,VWS V14.00,2013-07-05 13:15:00,
2013-07-05 06:20:00,56.4,50.3,30.05,NW,313,0.0,0.0,80,0.00,,---,0.00,VWS V14.00,2013-07-05 13:20:00,
2013-07-05 06:25:00,56.4,50.3,30.05,NW,313,0.0,0.0,80,0.00,,---,0.00,VWS V14.00,2013-07-05 13:25:00,
2013-07-05 06:30:00,56.4,50.3,30.05,NW,313,0.0,0.0,80,0.00,,---,0.00,VWS V14.00,2013-07-05 13:30:00,
2013-07-05 06:36:00,56.6,50.8,30.05,NW,313,0.0,0.0,81,0.00,,---,0.00,VWS V14.00,2013-07-05 13:36:00,
2013-07-05 06:41:00,56.7,50.6,30.05,NW,313,0.0,0.0,80,0.00,,---,0.00,VWS V14.00,2013-07-05 13:41:00,
2013-07-05 06:46:00,56.8,50.7,30.05,NW,313,0.0,1.0,80,0.00,,---,0.00,VWS V14.00,2013-07-05 13:46:00,
2013-07-05 06:51:00,56.9,50.8,30.05,NW,313,0.0,1.0,80,0.00,,---,0.00,VWS V14.00,2013-07-05 13:51:00,
2013-07-05 06:56:00,57.1,51.0,30.05,NW,313,1.0,1.0,80,0.00,,---,0.00,VWS V14.00,2013-07-05 13:56:00,
2013-07-05 07:01:00,57.3,51.5,30.05,NW,313,0.0,1.0,81,0.00,,---,0.00,VWS V14.00,2013-07-05 14:01:00,
2013-07-05 07:06:00,57.5,51.4,30.05,NW,313,0.0,1.0,80,0.00,,---,0.00,VWS V14.00,2013-07-05 14:06:00,
2013-07-05 07:11:00,57.7,51.2,30.06,NW,313,0.0,1.0,79,0.00,,---,0.00,VWS V14.00,2013-07-05 14:11:00,
2013-07-05 07:16:00,57.9,51.8,30.06,NW,313,0.0,1.0,80,0.00,,---,0.00,VWS V14.00,2013-07-05 14:16:00,
2013-07-05 07:21:00,58.1,51.6,30.06,NW,313,0.0,1.0,79,0.00,,---,0.00,VWS V14.00,2013-07-05 14:21:00,
2013-07-05 07:26:00,58.2,51.4,30.06,NW,313,0.0,2.0,78,0.00,,---,0.00,VWS V14.00,2013-07-05 14:26:00,
2013-07-05 07:32:00,58.3,51.8,30.06,NW,313,0.0,2.0,79,0.00,,---,0.00,VWS V14.00,2013-07-05 14:32:00,
2013-07-05 07:37:00,58.5,52.0,30.06,South,190,0.0,2.0,79,0.00,,---,0.00,VWS V14.00,2013-07-05 14:37:00,
2013-07-05 07:42:00,58.7,52.2,30.06,South,190,0.0,2.0,79,0.00,,---,0.00,VWS V14.00,2013-07-05 14:42:00,
2013-07-05 07:47:00,58.8,52.0,30.05,NW,315,0.0,2.0,78,0.00,,---,0.00,VWS V14.00,2013-07-05 14:47:00,
2013-07-05 07:52:00,58.9,52.1,30.06,North,355,0.0,2.0,78,0.00,,---,0.00,VWS V14.00,2013-07-05 14:52:00,
2013-07-05 07:57:00,59.0,51.8,30.06,NNW,347,0.0,2.0,77,0.00,,---,0.00,VWS V14.00,2013-07-05 14:57:00,
2013-07-05 08:02:00,59.1,52.3,30.06,NNW,348,1.0,1.0,78,0.00,,---,0.00,VWS V14.00,2013-07-05 15:02:00,
2013-07-05 08:07:00,59.1,50.8,30.06,NW,319,0.0,3.0,74,0.00,,---,0.00,VWS V14.00,2013-07-05 15:07:00,
2013-07-05 08:12:00,59.3,52.1,30.06,NW,319,0.0,3.0,77,0.00,,---,0.00,VWS V14.00,2013-07-05 15:12:00,
2013-07-05 08:17:00,59.6,51.3,30.06,NW,325,1.0,3.0,74,0.00,,---,0.00,VWS V14.00,2013-07-05 15:17:00,
2013-07-05 08:22:00,59.6,51.0,30.06,NNW,344,0.0,3.0,73,0.00,,---,0.00,VWS V14.00,2013-07-05 15:22:00,
2013-07-05 08:27:00,59.8,51.1,30.06,NNW,342,0.0,3.0,73,0.00,,---,0.00,VWS V14.00,2013-07-05 15:27:00,
2013-07-05 08:32:00,60.0,51.3,30.06,WNW,296,1.0,2.0,73,0.00,,---,0.00,VWS V14.00,2013-07-05 15:32:00,
2013-07-05 08:37:00,60.2,51.5,30.06,NW,307,1.0,2.0,73,0.00,,---,0.00,VWS V14.00,2013-07-05 15:37:00,
2013-07-05 08:43:00,60.3,50.9,30.06,NNW,335,2.0,4.0,71,0.00,,---,0.00,VWS V14.00,2013-07-05 15:43:00,
2013-07-05 08:48:00,60.4,51.3,30.06,NW,312,0.0,4.0,72,0.00,,---,0.00,VWS V14.00,2013-07-05 15:48:00,
2013-07-05 08:49:00,60.4,51.3,30.06,NW,311,0.0,4.0,72,0.00,,---,0.00,VWS V14.00,2013-07-05 15:49:00,
2013-07-05 08:54:00,60.6,51.2,30.06,NNW,332,2.0,4.0,71,0.00,,---,0.00,VWS V14.00,2013-07-05 15:54:00,
2013-07-05 08:59:00,60.7,51.6,30.06,NW,322,0.0,5.0,72,0.00,,---,0.00,VWS V14.00,2013-07-05 15:59:00,
2013-07-05 09:04:00,60.9,51.8,30.06,NNE,17,0.0,3.0,72,0.00,,---,0.00,VWS V14.00,2013-07-05 16:04:00,
2013-07-05 09:09:00,61.2,51.3,30.06,NW,307,3.0,3.0,70,0.00,,---,0.00,VWS V14.00,2013-07-05 16:09:00,
2013-07-05 09:14:00,61.5,52.0,30.06,NW,323,2.0,6.0,71,0.00,,---,0.00,VWS V14.00,2013-07-05 16:14:00,
2013-07-05 09:19:00,61.6,52.1,30.06,WNW,298,0.0,6.0,71,0.00,,---,0.00,VWS V14.00,2013-07-05 16:19:00,
2013-07-05 09:24:00,61.8,50.7,30.06,NE,38,2.0,7.0,67,0.00,,---,0.00,VWS V14.00,2013-07-05 16:24:00,
2013-07-05 09:30:00,61.6,51.3,30.06,NW,309,1.0,7.0,69,0.00,,---,0.00,VWS V14.00,2013-07-05 16:30:00,
2013-07-05 09:35:00,61.7,51.0,30.06,NW,319,2.0,6.0,68,0.00,,---,0.00,VWS V14.00,2013-07-05 16:35:00,
2013-07-05 09:40:00,61.4,50.4,30.06,NW,304,2.0,7.0,67,0.00,,---,0.00,VWS V14.00,2013-07-05 16:40:00,
2013-07-05 09:45:00,61.4,50.8,30.06,WNW,302,0.0,7.0,68,0.00,,---,0.00,VWS V14.00,2013-07-05 16:45:00,
2013-07-05 09:50:00,61.5,50.8,30.06,NW,315,1.0,7.0,68,0.00,,---,0.00,VWS V14.00,2013-07-05 16:50:00,
2013-07-05 09:55:00,61.6,51.0,30.06,NNW,334,3.0,7.0,68,0.00,,---,0.00,VWS V14.00,2013-07-05 16:55:00,
2013-07-05 10:00:00,61.8,51.9,30.06,North,355,0.0,7.0,70,0.00,,---,0.00,VWS V14.00,2013-07-05 17:00:00,
2013-07-05 10:05:00,61.9,52.0,30.06,NW,321,0.0,4.0,70,0.00,,---,0.00,VWS V14.00,2013-07-05 17:05:00,
2013-07-05 10:10:00,62.2,51.5,30.06,NW,310,4.0,7.0,68,0.00,,---,0.00,VWS V14.00,2013-07-05 17:10:00,
2013-07-05 10:15:00,62.4,51.3,30.06,NE,51,2.0,7.0,67,0.00,,---,0.00,VWS V14.00,2013-07-05 17:15:00,
2013-07-05 10:20:00,62.6,51.9,30.05,North,350,1.0,7.0,68,0.00,,---,0.00,VWS V14.00,2013-07-05 17:20:00,
2013-07-05 10:21:00,62.6,51.5,30.05,NE,42,2.0,7.0,67,0.00,,---,0.00,VWS V14.00,2013-07-05 17:21:00,
2013-07-05 10:26:00,62.7,51.2,30.05,NW,323,1.0,7.0,66,0.00,,---,0.00,VWS V14.00,2013-07-05 17:26:00,
2013-07-05 10:31:00,62.7,50.8,30.05,NNE,29,1.0,9.0,65,0.00,,---,0.00,VWS V14.00,2013-07-05 17:31:00,
2013-07-05 10:36:00,62.7,50.4,30.05,NW,325,7.0,7.0,64,0.00,,---,0.00,VWS V14.00,2013-07-05 17:36:00,
2013-07-05 10:41:00,62.9,50.5,30.05,NE,40,3.0,7.0,64,0.00,,---,0.00,VWS V14.00,2013-07-05 17:41:00,
2013-07-05 10:46:00,62.8,50.9,30.05,NNW,346,0.0,8.0,65,0.00,,---,0.00,VWS V14.00,2013-07-05 17:46:00,
2013-07-05 10:51:00,62.9,51.0,30.05,North,355,3.0,8.0,65,0.00,,---,0.00,VWS V14.00,2013-07-05 17:51:00,
2013-07-05 10:56:00,62.9,51.4,30.05,NNW,341,2.0,8.0,66,0.00,,---,0.00,VWS V14.00,2013-07-05 17:56:00,
2013-07-05 11:01:00,62.9,50.5,30.05,NW,311,5.0,8.0,64,0.00,,---,0.00,VWS V14.00,2013-07-05 18:01:00,
2013-07-05 11:06:00,63.1,52.0,30.05,NNW,331,1.0,5.0,67,0.00,,---,0.00,VWS V14.00,2013-07-05 18:06:00,
2013-07-05 11:11:00,63.3,51.3,30.05,NW,313,2.0,5.0,65,0.00,,---,0.00,VWS V14.00,2013-07-05 18:11:00,
2013-07-05 11:16:00,63.4,51.4,30.05,North,350,1.0,5.0,65,0.00,,---,0.00,VWS V14.00,2013-07-05 18:16:00,
2013-07-05 11:21:00,63.5,50.3,30.04,NNW,330,2.0,6.0,62,0.00,,---,0.00,VWS V14.00,2013-07-05 18:21:00,
2013-07-05 11:26:00,63.5,51.5,30.04,NNW,330,4.0,6.0,65,0.00,,---,0.00,VWS V14.00,2013-07-05 18:26:00,
2013-07-05 11:31:00,63.6,51.6,30.04,NE,40,5.0,6.0,65,0.00,,---,0.00,VWS V14.00,2013-07-05 18:31:00,
2013-07-05 11:36:00,63.5,50.7,30.04,NW,305,0.0,8.0,63,0.00,,---,0.00,VWS V14.00,2013-07-05 18:36:00,
2013-07-05 11:42:00,63.8,51.4,30.04,NW,318,4.0,8.0,64,0.00,,---,0.00,VWS V14.00,2013-07-05 18:42:00,
2013-07-05 11:47:00,64.3,51.5,30.04,WNW,296,4.0,8.0,63,0.00,,---,0.00,VWS V14.00,2013-07-05 18:47:00,
2013-07-05 11:52:00,64.7,51.8,30.04,NE,44,1.0,8.0,63,0.00,,---,0.00,VWS V14.00,2013-07-05 18:52:00,
2013-07-05 11:57:00,65.3,52.0,30.04,NNW,338,2.0,8.0,62,0.00,,---,0.00,VWS V14.00,2013-07-05 18:57:00,
2013-07-05 12:02:00,65.8,52.0,30.04,WNW,292,0.0,8.0,61,0.00,,---,0.00,VWS V14.00,2013-07-05 19:02:00,
2013-07-05 12:07:00,66.3,51.6,30.03,NNW,327,4.0,8.0,59,0.00,,---,0.00,VWS V14.00,2013-07-05 19:07:00,
2013-07-05 12:12:00,66.1,52.3,30.03,WNW,301,3.0,8.0,61,0.00,,---,0.00,VWS V14.00,2013-07-05 19:12:00,
2013-07-05 12:17:00,66.4,52.6,30.03,NW,317,1.0,8.0,61,0.00,,---,0.00,VWS V14.00,2013-07-05 19:17:00,
2013-07-05 12:22:00,66.5,53.5,30.03,North,355,2.0,8.0,63,0.00,,---,0.00,VWS V14.00,2013-07-05 19:22:00,
2013-07-05 12:27:00,66.8,53.4,30.03,ENE,57,2.0,8.0,62,0.00,,---,0.00,VWS V14.00,2013-07-05 19:27:00,
2013-07-05 12:32:00,67.1,54.5,30.03,WNW,292,1.0,8.0,64,0.00,,---,0.00,VWS V14.00,2013-07-05 19:32:00,
2013-07-05 12:37:00,67.2,52.4,30.03,NNW,337,7.0,8.0,59,0.00,,---,0.00,VWS V14.00,2013-07-05 19:37:00,
2013-07-05 12:42:00,66.8,52.5,30.03,NNW,336,3.0,9.0,60,0.00,,---,0.00,VWS V14.00,2013-07-05 19:42:00,
2013-07-05 12:47:00,67.1,52.8,30.03,NNW,338,4.0,9.0,60,0.00,,---,0.00,VWS V14.00,2013-07-05 19:47:00,
2013-07-05 12:52:00,67.7,53.8,30.03,North,360,1.0,9.0,61,0.00,,---,0.00,VWS V14.00,2013-07-05 19:52:00,
2013-07-05 12:57:00,68.1,52.8,30.03,NW,321,3.0,9.0,58,0.00,,---,0.00,VWS V14.00,2013-07-05 19:57:00,
2013-07-05 13:02:00,68.3,54.8,30.02,NE,55,3.0,4.0,62,0.00,,---,0.00,VWS V14.00,2013-07-05 20:02:00,
2013-07-05 13:07:00,68.4,53.1,30.02,North,360,0.0,8.0,58,0.00,,---,0.00,VWS V14.00,2013-07-05 20:07:00,
2013-07-05 13:12:00,68.4,53.1,30.02,NE,48,4.0,8.0,58,0.00,,---,0.00,VWS V14.00,2013-07-05 20:12:00,
2013-07-05 13:17:00,68.7,54.3,30.02,ENE,59,4.0,8.0,60,0.00,,---,0.00,VWS V14.00,2013-07-05 20:17:00,
2013-07-05 13:22:00,68.6,53.7,30.02,ENE,58,1.0,8.0,59,0.00,,---,0.00,VWS V14.00,2013-07-05 20:22:00,
2013-07-05 13:27:00,68.8,53.9,30.02,WNW,294,2.0,8.0,59,0.00,,---,0.00,VWS V14.00,2013-07-05 20:27:00,
2013-07-05 13:32:00,69.4,54.5,30.02,North,355,3.0,6.0,59,0.00,,---,0.00,VWS V14.00,2013-07-05 20:32:00,
2013-07-05 13:37:00,69.7,54.3,30.01,ENE,67,2.0,7.0,58,0.00,,---,0.00,VWS V14.00,2013-07-05 20:37:00,
2013-07-05 13:42:00,69.7,53.3,30.01,NE,53,4.0,7.0,56,0.00,,---,0.00,VWS V14.00,2013-07-05 20:42:00,
2013-07-05 13:47:00,69.4,53.5,30.01,WNW,292,1.0,10.0,57,0.00,,---,0.00,VWS V14.00,2013-07-05 20:47:00,
2013-07-05 13:53:00,69.6,55.1,30.01,NNW,334,2.0,10.0,60,0.00,,---,0.00,VWS V14.00,2013-07-05 20:53:00,
2013-07-05 13:58:00,69.7,53.8,30.01,NNE,31,2.0,10.0,57,0.00,,---,0.00,VWS V14.00,2013-07-05 20:58:00,
2013-07-05 14:03:00,69.5,54.1,30.01,West,275,3.0,8.0,58,0.00,,---,0.00,VWS V14.00,2013-07-05 21:03:00,
2013-07-05 14:08:00,70.0,54.1,30.01,NW,318,2.0,8.0,57,0.00,,---,0.00,VWS V14.00,2013-07-05 21:08:00,
2013-07-05 14:13:00,70.2,53.8,30.01,NNE,24,2.0,8.0,56,0.00,,---,0.00,VWS V14.00,2013-07-05 21:13:00,
2013-07-05 14:18:00,70.3,55.8,30.01,ENE,60,0.0,8.0,60,0.00,,---,0.00,VWS V14.00,2013-07-05 21:18:00,
2013-07-05 14:23:00,70.6,53.7,30.01,NW,313,3.0,10.0,55,0.00,,---,0.00,VWS V14.00,2013-07-05 21:23:00,
2013-07-05 14:28:00,70.8,53.8,30.01,North,5,6.0,10.0,55,0.00,,---,0.00,VWS V14.00,2013-07-05 21:28:00,
2013-07-05 14:33:00,70.8,54.3,30.01,NE,53,1.0,6.0,56,0.00,,---,0.00,VWS V14.00,2013-07-05 21:33:00,
2013-07-05 14:38:00,70.9,54.9,30.00,NE,38,2.0,6.0,57,0.00,,---,0.00,VWS V14.00,2013-07-05 21:38:00,
2013-07-05 14:43:00,70.8,55.3,30.00,WNW,285,3.0,6.0,58,0.00,,---,0.00,VWS V14.00,2013-07-05 21:43:00,
2013-07-05 14:48:00,71.1,54.6,30.00,NW,318,2.0,7.0,56,0.00,,---,0.00,VWS V14.00,2013-07-05 21:48:00,
2013-07-05 14:53:00,71.6,54.6,30.00,NNW,334,3.0,7.0,55,0.00,,---,0.00,VWS V14.00,2013-07-05 21:53:00,
2013-07-05 14:58:00,71.6,54.6,30.00,NW,323,6.0,7.0,55,0.00,,---,0.00,VWS V14.00,2013-07-05 21:58:00,
2013-07-05 15:03:00,71.5,54.0,29.99,NNW,333,4.0,7.0,54,0.00,,---,0.00,VWS V14.00,2013-07-05 22:03:00,
2013-07-05 15:08:00,71.3,54.8,29.99,NE,40,1.0,10.0,56,0.00,,---,0.00,VWS V14.00,2013-07-05 22:08:00,
2013-07-05 15:13:00,71.6,54.6,29.99,ENE,69,3.0,10.0,55,0.00,,---,0.00,VWS V14.00,2013-07-05 22:13:00,
2013-07-05 15:18:00,71.8,56.2,29.99,ESE,105,1.0,10.0,58,0.00,,---,0.00,VWS V14.00,2013-07-05 22:18:00,
2013-07-05 15:23:00,72.1,56.0,29.98,NW,323,2.0,10.0,57,0.00,,---,0.00,VWS V14.00,2013-07-05 22:23:00,
2013-07-05 15:28:00,72.4,55.8,29.98,WNW,299,1.0,10.0,56,0.00,,---,0.00,VWS V14.00,2013-07-05 22:28:00,
2013-07-05 15:34:00,72.4,55.3,29.98,NW,307,4.0,4.0,55,0.00,,---,0.00,VWS V14.00,2013-07-05 22:34:00,
2013-07-05 15:39:00,72.7,56.1,29.98,ENE,64,3.0,7.0,56,0.00,,---,0.00,VWS V14.00,2013-07-05 22:39:00,
2013-07-05 15:44:00,72.6,57.5,29.98,NE,46,3.0,7.0,59,0.00,,---,0.00,VWS V14.00,2013-07-05 22:44:00,
2013-07-05 15:49:00,72.5,55.9,29.97,NNW,342,7.0,8.0,56,0.00,,---,0.00,VWS V14.00,2013-07-05 22:49:00,
2013-07-05 15:54:00,72.9,54.8,29.98,NNW,333,4.0,9.0,53,0.00,,---,0.00,VWS V14.00,2013-07-05 22:54:00,
2013-07-05 15:55:00,72.8,54.2,29.98,NW,323,2.0,9.0,52,0.00,,---,0.00,VWS V14.00,2013-07-05 22:55:00,
2013-07-05 16:00:00,73.1,55.0,29.98,NE,55,2.0,9.0,53,0.00,,---,0.00,VWS V14.00,2013-07-05 23:00:00,
2013-07-05 16:05:00,73.0,55.9,29.97,NW,317,1.0,6.0,55,0.00,,---,0.00,VWS V14.00,2013-07-05 23:05:00,
2013-07-05 16:10:00,73.2,55.6,29.97,ENE,74,1.0,7.0,54,0.00,,---,0.00,VWS V14.00,2013-07-05 23:10:00,
2013-07-05 16:15:00,72.9,55.3,29.97,North,355,4.0,7.0,54,0.00,,---,0.00,VWS V14.00,2013-07-05 23:15:00,
2013-07-05 16:20:00,72.9,54.8,29.97,WNW,286,3.0,9.0,53,0.00,,---,0.00,VWS V14.00,2013-07-05 23:20:00,
2013-07-05 16:25:00,73.1,55.0,29.96,NW,324,3.0,9.0,53,0.00,,---,0.00,VWS V14.00,2013-07-05 23:25:00,
2013-07-05 16:30:00,73.3,57.2,29.96,SW,217,5.0,9.0,57,0.00,,---,0.00,VWS V14.00,2013-07-05 23:30:00,
2013-07-05 16:35:00,73.5,55.9,29.97,WNW,295,3.0,6.0,54,0.00,,---,0.00,VWS V14.00,2013-07-05 23:35:00,
2013-07-05 16:40:00,73.1,55.5,29.96,WNW,302,4.0,8.0,54,0.00,,---,0.00,VWS V14.00,2013-07-05 23:40:00,
2013-07-05 16:45:00,72.9,54.8,29.96,NW,311,5.0,8.0,53,0.00,,---,0.00,VWS V14.00,2013-07-05 23:45:00,
2013-07-05 16:50:00,73.0,54.4,29.96,NW,319,2.0,8.0,52,0.00,,---,0.00,VWS V14.00,2013-07-05 23:50:00,
2013-07-05 16:55:00,73.3,54.6,29.96,NW,322,1.0,8.0,52,0.00,,---,0.00,VWS V14.00,2013-07-05 23:55:00,
2013-07-05 17:00:00,73.5,54.8,29.96,WNW,294,4.0,8.0,52,0.00,,---,0.00,VWS V14.00,2013-07-06 00:00:00,
2013-07-05 17:05:00,73.7,55.0,29.95,NW,321,4.0,4.0,52,0.00,,---,0.00,VWS V14.00,2013-07-06 00:05:00,
2013-07-05 17:10:00,73.7,54.5,29.95,NNW,340,0.0,7.0,51,0.00,,---,0.00,VWS V14.00,2013-07-06 00:10:00,
2013-07-05 17:15:00,73.8,56.1,29.95,NW,323,3.0,7.0,54,0.00,,---,0.00,VWS V14.00,2013-07-06 00:15:00,
2013-07-05 17:20:00,73.7,54.5,29.95,NNW,337,1.0,7.0,51,0.00,,---,0.00,VWS V14.00,2013-07-06 00:20:00,
2013-07-05 17:25:00,73.8,55.1,29.95,NE,38,1.0,8.0,52,0.00,,---,0.00,VWS V14.00,2013-07-06 00:25:00,
2013-07-05 17:30:00,73.9,54.1,29.95,NNE,31,4.0,8.0,50,0.00,,---,0.00,VWS V14.00,2013-07-06 00:30:00,
2013-07-05 17:35:00,74.0,54.7,29.94,NNW,329,3.0,8.0,51,0.00,,---,0.00,VWS V14.00,2013-07-06 00:35:00,
2013-07-05 17:40:00,74.2,54.9,29.94,NE,49,2.0,8.0,51,0.00,,---,0.00,VWS V14.00,2013-07-06 00:40:00,
2013-07-05 17:45:00,74.2,54.4,29.94,WNW,296,2.0,9.0,50,0.00,,---,0.00,VWS V14.00,2013-07-06 00:45:00,
2013-07-05 17:51:00,74.0,54.7,29.94,NNE,14,1.0,9.0,51,0.00,,---,0.00,VWS V14.00,2013-07-06 00:51:00,
2013-07-05 17:56:00,74.0,54.7,29.94,NW,315,4.0,9.0,51,0.00,,---,0.00,VWS V14.00,2013-07-06 00:56:00,
2013-07-05 18:01:00,74.0,54.7,29.94,NW,323,2.0,9.0,51,0.00,,---,0.00,VWS V14.00,2013-07-06 01:01:00,
2013-07-05 18:06:00,74.1,54.8,29.94,NNW,344,2.0,5.0,51,0.00,,---,0.00,VWS V14.00,2013-07-06 01:06:00,
2013-07-05 18:11:00,74.2,55.5,29.93,NNW,327,3.0,5.0,52,0.00,,---,0.00,VWS V14.00,2013-07-06 01:11:00,
2013-07-05 18:16:00,74.3,54.5,29.93,NW,308,2.0,5.0,50,0.00,,---,0.00,VWS V14.00,2013-07-06 01:16:00,
2013-07-05 18:21:00,74.0,54.7,29.93,NNW,329,3.0,8.0,51,0.00,,---,0.00,VWS V14.00,2013-07-06 01:21:00,
2013-07-05 18:26:00,73.8,57.1,29.93,West,281,2.0,8.0,56,0.00,,---,0.00,VWS V14.00,2013-07-06 01:26:00,
2013-07-05 18:31:00,73.1,54.5,29.93,NW,318,1.0,8.0,52,0.00,,---,0.00,VWS V14.00,2013-07-06 01:31:00,
2013-07-05 18:37:00,72.6,55.0,29.93,WNW,290,2.0,8.0,54,0.00,,---,0.00,VWS V14.00,2013-07-06 01:37:00,
2013-07-05 18:42:00,72.1,54.6,29.93,NNW,331,4.0,8.0,54,0.00,,---,0.00,VWS V14.00,2013-07-06 01:42:00,
2013-07-05 18:47:00,71.8,54.8,29.93,NW,313,2.0,8.0,55,0.00,,---,0.00,VWS V14.00,2013-07-06 01:47:00,
2013-07-05 18:52:00,71.7,54.7,29.93,NNE,28,1.0,8.0,55,0.00,,---,0.00,VWS V14.00,2013-07-06 01:52:00,
2013-07-05 18:57:00,71.6,54.6,29.93,NW,306,2.0,8.0,55,0.00,,---,0.00,VWS V14.00,2013-07-06 01:57:00,
2013-07-05 19:02:00,71.5,55.0,29.93,NNW,348,3.0,8.0,56,0.00,,---,0.00,VWS V14.00,2013-07-06 02:02:00,
2013-07-05 19:07:00,71.3,54.8,29.92,North,351,1.0,6.0,56,0.00,,---,0.00,VWS V14.00,2013-07-06 02:07:00,
2013-07-05 19:12:00,71.2,54.7,29.92,West,280,2.0,6.0,56,0.00,,---,0.00,VWS V14.00,2013-07-06 02:12:00,
2013-07-05 19:13:00,71.1,54.6,29.92,North,349,1.0,6.0,56,0.00,,---,0.00,VWS V14.00,2013-07-06 02:13:00,
2013-07-05 19:18:00,71.0,55.5,29.93,West,262,3.0,6.0,58,0.00,,---,0.00,VWS V14.00,2013-07-06 02:18:00,
2013-07-05 19:23:00,70.8,54.3,29.93,NW,312,3.0,7.0,56,0.00,,---,0.00,VWS V14.00,2013-07-06 02:23:00,
2013-07-05 19:28:00,70.7,54.7,29.93,WNW,297,1.0,7.0,57,0.00,,---,0.00,VWS V14.00,2013-07-06 02:28:00,
2013-07-05 19:33:00,70.6,54.6,29.93,NNW,334,1.0,2.0,57,0.00,,---,0.00,VWS V14.00,2013-07-06 02:33:00,
2013-07-05 19:38:00,70.6,55.1,29.93,NW,306,1.0,3.0,58,0.00,,---,0.00,VWS V14.00,2013-07-06 02:38:00,
2013-07-05 19:43:00,70.5,55.0,29.93,NW,304,4.0,5.0,58,0.00,,---,0.00,VWS V14.00,2013-07-06 02:43:00,
2013-07-05 19:48:00,70.3,54.8,29.93,WNW,292,5.0,6.0,58,0.00,,---,0.00,VWS V14.00,2013-07-06 02:48:00,
2013-07-05 19:53:00,70.1,54.7,29.93,NW,306,1.0,6.0,58,0.00,,---,0.00,VWS V14.00,2013-07-06 02:53:00,
2013-07-05 19:58:00,70.0,55.5,29.93,WNW,303,1.0,6.0,60,0.00,,---,0.00,VWS V14.00,2013-07-06 02:58:00,
2013-07-05 20:03:00,69.8,55.3,29.93,NNW,327,0.0,0.0,60,0.00,,---,0.00,VWS V14.00,2013-07-06 03:03:00,
2013-07-05 20:08:00,69.7,55.7,29.93,NW,324,0.0,3.0,61,0.00,,---,0.00,VWS V14.00,2013-07-06 03:08:00,
2013-07-05 20:13:00,69.5,55.5,29.93,NW,321,0.0,3.0,61,0.00,,---,0.00,VWS V14.00,2013-07-06 03:13:00,
2013-07-05 20:18:00,69.4,55.8,29.93,NNW,331,0.0,3.0,62,0.00,,---,0.00,VWS V14.00,2013-07-06 03:18:00,
2013-07-05 20:23:00,69.3,56.6,29.94,North,5,0.0,3.0,64,0.00,,---,0.00,VWS V14.00,2013-07-06 03:23:00,
2013-07-05 20:28:00,69.2,56.1,29.94,NW,313,1.0,4.0,63,0.00,,---,0.00,VWS V14.00,2013-07-06 03:28:00,
2013-07-05 20:33:00,69.0,56.8,29.94,NW,312,1.0,2.0,65,0.00,,---,0.00,VWS V14.00,2013-07-06 03:33:00,
2013-07-05 20:39:00,68.8,57.0,29.94,North,360,0.0,4.0,66,0.00,,---,0.00,VWS V14.00,2013-07-06 03:39:00,
2013-07-05 20:44:00,68.5,56.7,29.94,NNE,17,0.0,4.0,66,0.00,,---,0.00,VWS V14.00,2013-07-06 03:44:00,
2013-07-05 20:49:00,68.1,56.3,29.94,NNE,28,0.0,4.0,66,0.00,,---,0.00,VWS V14.00,2013-07-06 03:49:00,
2013-07-05 20:54:00,67.7,56.4,29.94,North,11,0.0,4.0,67,0.00,,---,0.00,VWS V14.00,2013-07-06 03:54:00,
2013-07-05 20:59:00,67.3,56.0,29.94,NNE,16,0.0,4.0,67,0.00,,---,0.00,VWS V14.00,2013-07-06 03:59:00,
2013-07-05 21:01:00,67.2,56.3,29.94,NNE,16,0.0,4.0,68,0.00,,---,0.00,VWS V14.00,2013-07-06 04:01:00,
2013-07-05 21:02:00,67.1,56.2,29.94,NNW,345,0.0,4.0,68,0.00,,---,0.00,VWS V14.00,2013-07-06 04:02:00,
2013-07-05 21:07:00,66.7,56.6,29.94,ENE,58,0.0,2.0,70,0.00,,---,0.00,VWS V14.00,2013-07-06 04:07:00,
2013-07-05 21:12:00,66.3,55.8,29.94,ENE,58,0.0,2.0,69,0.00,,---,0.00,VWS V14.00,2013-07-06 04:12:00,
2013-07-05 21:17:00,65.9,56.6,29.94,ENE,57,0.0,2.0,72,0.00,,---,0.00,VWS V14.00,2013-07-06 04:17:00,
2013-07-05 21:22:00,65.4,55.8,29.94,ENE,57,1.0,2.0,71,0.00,,---,0.00,VWS V14.00,2013-07-06 04:22:00,
2013-07-05 21:27:00,65.0,55.8,29.94,ENE,57,0.0,2.0,72,0.00,,---,0.00,VWS V14.00,2013-07-06 04:27:00,
2013-07-05 21:32:00,64.6,55.4,29.95,ENE,57,0.0,0.0,72,0.00,,---,0.00,VWS V14.00,2013-07-06 04:32:00,
2013-07-05 21:37:00,64.3,55.8,29.95,ENE,57,0.0,1.0,74,0.00,,---,0.00,VWS V14.00,2013-07-06 04:37:00,
2013-07-05 21:42:00,63.9,55.1,29.95,NW,312,0.0,2.0,73,0.00,,---,0.00,VWS V14.00,2013-07-06 04:42:00,
2013-07-05 21:47:00,63.6,55.2,29.95,NW,312,0.0,2.0,74,0.00,,---,0.00,VWS V14.00,2013-07-06 04:47:00,
2013-07-05 21:52:00,63.4,55.0,29.95,NW,312,0.0,2.0,74,0.00,,---,0.00,VWS V14.00,2013-07-06 04:52:00,
2013-07-05 21:57:00,63.1,55.1,29.95,NW,312,0.0,2.0,75,0.00,,---,0.00,VWS V14.00,2013-07-06 04:57:00,
2013-07-05 22:02:00,62.8,55.1,29.96,NW,312,0.0,0.0,76,0.00,,---,0.00,VWS V14.00,2013-07-06 05:02:00,
2013-07-05 22:03:00,62.8,54.8,29.96,NW,312,0.0,0.0,75,0.00,,---,0.00,VWS V14.00,2013-07-06 05:03:00,
2013-07-05 22:08:00,62.6,55.3,29.96,NW,312,0.0,0.0,77,0.00,,---,0.00,VWS V14.00,2013-07-06 05:08:00,
2013-07-05 22:13:00,62.3,54.7,29.96,NW,312,0.0,0.0,76,0.00,,---,0.00,VWS V14.00,2013-07-06 05:13:00,
2013-07-05 22:18:00,62.1,54.5,29.96,NW,312,0.0,0.0,76,0.00,,---,0.00,VWS V14.00,2013-07-06 05:18:00,
2013-07-05 22:23:00,61.9,54.6,29.96,NW,312,0.0,0.0,77,0.00,,---,0.00,VWS V14.00,2013-07-06 05:23:00,
2013-07-05 22:28:00,61.7,55.1,29.96,NW,312,0.0,0.0,79,0.00,,---,0.00,VWS V14.00,2013-07-06 05:28:00,
2013-07-05 22:33:00,61.4,54.8,29.96,NW,312,0.0,0.0,79,0.00,,---,0.00,VWS V14.00,2013-07-06 05:33:00,
2013-07-05 22:38:00,61.2,54.6,29.96,NW,312,0.0,0.0,79,0.00,,---,0.00,VWS V14.00,2013-07-06 05:38:00,
2013-07-05 22:43:00,61.1,54.5,29.96,NW,312,0.0,0.0,79,0.00,,---,0.00,VWS V14.00,2013-07-06 05:43:00,
2013-07-05 22:48:00,61.1,55.6,29.96,NW,311,0.0,1.0,82,0.00,,---,0.00,VWS V14.00,2013-07-06 05:48:00,
2013-07-05 22:53:00,61.0,55.8,29.96,NW,311,0.0,2.0,83,0.00,,---,0.00,VWS V14.00,2013-07-06 05:53:00,
2013-07-05 22:58:00,61.0,55.5,29.96,NW,311,0.0,2.0,82,0.00,,---,0.00,VWS V14.00,2013-07-06 05:58:00,
2013-07-05 23:03:00,60.9,55.4,29.96,NW,311,0.0,1.0,82,0.00,,---,0.00,VWS V14.00,2013-07-06 06:03:00,
2013-07-05 23:08:00,60.9,55.4,29.96,NW,312,0.0,1.0,82,0.00,,---,0.00,VWS V14.00,2013-07-06 06:08:00,
2013-07-05 23:13:00,60.8,55.6,29.96,NW,312,0.0,1.0,83,0.00,,---,0.00,VWS V14.00,2013-07-06 06:13:00,
2013-07-05 23:18:00,60.6,55.4,29.96,NW,312,0.0,1.0,83,0.00,,---,0.00,VWS V14.00,2013-07-06 06:18:00,
2013-07-05 23:23:00,60.4,55.2,29.96,NW,312,0.0,1.0,83,0.00,,---,0.00,VWS V14.00,2013-07-06 06:23:00,
2013-07-05 23:28:00,60.2,54.7,29.96,NW,312,0.0,1.0,82,0.00,,---,0.00,VWS V14.00,2013-07-06 06:28:00,
2013-07-05 23:33:00,59.8,54.3,29.96,NW,312,0.0,0.0,82,0.00,,---,0.00,VWS V14.00,2013-07-06 06:33:00,
2013-07-05 23:38:00,59.6,54.1,29.97,NW,312,0.0,0.0,82,0.00,,---,0.00,VWS V14.00,2013-07-06 06:38:00,
2013-07-05 23:43:00,59.3,53.8,29.96,NW,312,0.0,0.0,82,0.00,,---,0.00,VWS V14.00,2013-07-06 06:43:00,
2013-07-05 23:48:00,59.1,53.3,29.96,NW,312,0.0,1.0,81,0.00,,---,0.00,VWS V14.00,2013-07-06 06:48:00,
2013-07-05 23:53:00,58.8,53.3,29.96,NW,312,0.0,1.0,82,0.00,,---,0.00,VWS V14.00,2013-07-06 06:53:00,
2013-07-05 23:58:00,58.6,53.1,29.96,NW,312,0.0,2.0,82,0.00,,---,0.00,VWS V14.00,2013-07-06 06:58:00,